"datetime","temp","dp","rain_mm","uv","mb"
"2015-02-24 00:00:00",3.8,2.2,0.0,0.0,993.1
"2015-02-24 00:01:00",3.8,2.2,0.0,0.0,993.1
"2015-02-24 00:02:00",3.8,2.2,0.0,0.0,993.1
"2015-02-24 00:03:00",3.8,2.2,0.0,0.0,993.1
"2015-02-24 00:04:00",3.8,2.2,0.0,0.0,993.1
"2015-02-24 00:05:00",3.8,2.2,0.0,0.0,993.2
"2015-02-24 00:06:00",3.8,2.2,0.0,0.0,993.1
"2015-02-24 00:07:00",3.8,2.1,0.0,0.0,993.1
"2015-02-24 00:08:00",3.8,2.1,0.0,0.0,993.1
"2015-02-24 00:09:00",3.8,2.3,0.0,0.0,993.2
"2015-02-24 00:10:00",3.8,2.1,0.0,0.0,993.2
"2015-02-24 00:11:00",3.8,2.3,0.0,0.0,993.2
"2015-02-24 00:12:00",3.8,2.3,0.0,0.0,993.1
"2015-02-24 00:13:00",3.8,2.3,0.0,0.0,993.2
"2015-02-24 00:14:00",3.8,2.3,0.0,0.0,993.2
"2015-02-24 00:15:00",3.8,2.3,0.0,0.0,993.2
"2015-02-24 00:16:00",3.8,2.3,0.0,0.0,993.2
"2015-02-24 00:17:00",3.8,2.3,0.0,0.0,993.2
"2015-02-24 00:18:00",3.8,2.3,0.0,0.0,993.2
"2015-02-24 00:19:00",3.8,2.3,0.0,0.0,993.2
"2015-02-24 00:20:00",3.8,2.3,0.0,0.0,993.2
"2015-02-24 00:21:00",3.8,2.3,0.0,0.0,993.2
"2015-02-24 00:22:00",3.8,2.3,0.0,0.0,993.3
"2015-02-24 00:23:00",3.8,2.3,0.0,0.0,993.3
"2015-02-24 00:24:00",3.8,2.4,0.0,0.0,993.3
"2015-02-24 00:25:00",3.9,2.4,0.0,0.0,993.3
"2015-02-24 00:26:00",3.9,2.4,0.0,0.0,993.3
"2015-02-24 00:27:00",3.9,2.4,0.0,0.0,993.4
"2015-02-24 00:28:00",3.9,2.4,0.0,0.0,993.4
"2015-02-24 00:29:00",3.9,2.4,0.0,0.0,993.3
"2015-02-24 00:30:00",3.9,2.4,0.0,0.0,993.3
"2015-02-24 00:31:00",3.9,2.4,0.0,0.0,993.3
"2015-02-24 00:32:00",3.9,2.4,0.0,0.0,993.3
"2015-02-24 00:33:00",3.9,2.5,0.0,0.0,993.4
"2015-02-24 00:34:00",3.9,2.5,0.0,0.0,993.4
"2015-02-24 00:35:00",3.9,2.5,0.0,0.0,993.4
"2015-02-24 00:36:00",3.9,2.5,0.0,0.0,993.4
"2015-02-24 00:37:00",3.9,2.5,0.0,0.0,993.4
"2015-02-24 00:38:00",3.9,2.5,0.0,0.0,993.4
"2015-02-24 00:39:00",3.9,2.5,0.0,0.0,993.4
"2015-02-24 00:40:00",4.0,2.5,0.0,0.0,993.4
"2015-02-24 00:41:00",4.0,2.5,0.0,0.0,993.4
"2015-02-24 00:42:00",4.0,2.5,0.0,0.0,993.4
"2015-02-24 00:43:00",4.0,2.5,0.0,0.0,993.5
"2015-02-24 00:44:00",4.0,2.4,0.0,0.0,993.5
"2015-02-24 00:45:00",4.0,2.4,0.0,0.0,993.5
"2015-02-24 00:46:00",4.0,2.4,0.0,0.0,993.7
"2015-02-24 00:47:00",4.0,2.4,0.0,0.0,993.6
"2015-02-24 00:48:00",4.0,2.4,0.0,0.0,993.6
"2015-02-24 00:49:00",4.0,2.4,0.0,0.0,993.6
"2015-02-24 00:50:00",4.0,2.4,0.0,0.0,993.6
"2015-02-24 00:51:00",4.0,2.4,0.0,0.0,993.6
"2015-02-24 00:52:00",4.0,2.4,0.0,0.0,993.7
"2015-02-24 00:53:00",4.0,2.4,0.0,0.0,993.5
"2015-02-24 00:54:00",4.0,2.4,0.0,0.0,993.6
"2015-02-24 00:55:00",4.0,2.4,0.0,0.0,993.7
"2015-02-24 00:56:00",4.0,2.4,0.0,0.0,993.6
"2015-02-24 00:57:00",4.0,2.4,0.0,0.0,993.6
"2015-02-24 00:58:00",4.0,2.4,0.0,0.0,993.6
"2015-02-24 00:59:00",4.0,2.4,0.0,0.0,993.6
"2015-02-24 01:00:00",4.1,2.4,0.0,0.0,993.7
"2015-02-24 01:01:00",4.0,2.4,0.0,0.0,993.7
"2015-02-24 01:02:00",4.0,2.4,0.0,0.0,993.7
"2015-02-24 01:03:00",4.0,2.4,0.0,0.0,993.8
"2015-02-24 01:04:00",4.0,2.4,0.0,0.0,993.7
"2015-02-24 01:05:00",4.0,2.4,0.0,0.0,993.7
"2015-02-24 01:06:00",4.0,2.4,0.0,0.0,993.6
"2015-02-24 01:07:00",4.0,2.4,0.0,0.0,993.7
"2015-02-24 01:08:00",4.0,2.4,0.0,0.0,993.7
"2015-02-24 01:09:00",4.0,2.4,0.0,0.0,993.7
"2015-02-24 01:10:00",4.0,2.4,0.0,0.0,993.7
"2015-02-24 01:11:00",4.1,2.4,0.0,0.0,993.7
"2015-02-24 01:12:00",4.1,2.4,0.0,0.0,993.7
"2015-02-24 01:13:00",4.1,2.4,0.0,0.0,993.7
"2015-02-24 01:14:00",4.1,2.4,0.0,0.0,993.7
"2015-02-24 01:15:00",4.1,2.4,0.0,0.0,993.7
"2015-02-24 01:16:00",4.1,2.4,0.0,0.0,993.8
"2015-02-24 01:17:00",4.1,2.4,0.0,0.0,993.8
"2015-02-24 01:18:00",4.1,2.4,0.0,0.0,993.8
"2015-02-24 01:19:00",4.1,2.5,0.0,0.0,993.8
"2015-02-24 01:20:00",4.1,2.5,0.0,0.0,993.8
"2015-02-24 01:21:00",4.1,2.5,0.0,0.0,993.8
"2015-02-24 01:22:00",4.1,2.5,0.0,0.0,993.8
"2015-02-24 01:23:00",4.1,2.5,0.0,0.0,993.9
"2015-02-24 01:24:00",4.1,2.5,0.0,0.0,993.9
"2015-02-24 01:25:00",4.1,2.5,0.0,0.0,993.8
"2015-02-24 01:26:00",4.1,2.5,0.0,0.0,993.9
"2015-02-24 01:27:00",4.1,2.6,0.0,0.0,993.9
"2015-02-24 01:28:00",4.2,2.7,0.0,0.0,993.9
"2015-02-24 01:29:00",4.2,2.7,0.0,0.0,993.9
"2015-02-24 01:30:00",4.2,2.7,0.0,0.0,993.9
"2015-02-24 01:31:00",4.2,2.7,0.0,0.0,993.9
"2015-02-24 01:32:00",4.2,2.7,0.0,0.0,993.8
"2015-02-24 01:33:00",4.2,2.7,0.0,0.0,993.9
"2015-02-24 01:34:00",4.2,2.7,0.0,0.0,994.0
"2015-02-24 01:35:00",4.2,2.7,0.0,0.0,994.0
"2015-02-24 01:36:00",4.3,2.8,0.0,0.0,994.1
"2015-02-24 01:37:00",4.3,2.8,0.0,0.0,994.2
"2015-02-24 01:38:00",4.3,2.8,0.0,0.0,994.2
"2015-02-24 01:39:00",4.3,2.8,0.0,0.0,994.1
"2015-02-24 01:40:00",4.3,2.8,0.0,0.0,994.2
"2015-02-24 01:41:00",4.3,2.8,0.0,0.0,994.2
"2015-02-24 01:42:00",4.4,2.9,0.0,0.0,994.2
"2015-02-24 01:43:00",4.4,2.9,0.0,0.0,994.2
"2015-02-24 01:44:00",4.4,2.9,0.0,0.0,994.2
"2015-02-24 01:45:00",4.4,2.9,0.0,0.0,994.2
"2015-02-24 01:46:00",4.4,2.9,0.0,0.0,994.1
"2015-02-24 01:47:00",4.5,2.8,0.0,0.0,994.2
"2015-02-24 01:48:00",4.5,2.8,0.0,0.0,994.2
"2015-02-24 01:49:00",4.5,2.8,0.0,0.0,994.2
"2015-02-24 01:50:00",4.5,2.9,0.0,0.0,994.2
"2015-02-24 01:51:00",4.5,2.9,0.0,0.0,994.2
"2015-02-24 01:52:00",4.6,2.9,0.0,0.0,994.2
"2015-02-24 01:53:00",4.6,2.9,0.0,0.0,994.3
"2015-02-24 01:54:00",4.6,2.9,0.0,0.0,994.2
"2015-02-24 01:55:00",4.6,2.9,0.0,0.0,994.3
"2015-02-24 01:56:00",4.6,2.8,0.0,0.0,994.3
"2015-02-24 01:57:00",4.6,2.8,0.0,0.0,994.3
"2015-02-24 01:58:00",4.6,3.0,0.0,0.0,994.3
"2015-02-24 01:59:00",4.6,2.8,0.0,0.0,994.4
"2015-02-24 02:00:00",4.6,2.8,0.0,0.0,994.4
"2015-02-24 02:01:00",4.6,2.8,0.0,0.0,994.4
"2015-02-24 02:02:00",4.7,2.8,0.0,0.0,994.3
"2015-02-24 02:03:00",4.7,2.8,0.0,0.0,994.4
"2015-02-24 02:04:00",4.7,2.8,0.0,0.0,994.3
"2015-02-24 02:05:00",4.7,2.8,0.0,0.0,994.3
"2015-02-24 02:06:00",4.7,2.8,0.0,0.0,994.4
"2015-02-24 02:07:00",4.7,2.8,0.0,0.0,994.4
"2015-02-24 02:08:00",4.7,2.8,0.0,0.0,994.3
"2015-02-24 02:09:00",4.7,2.8,0.0,0.0,994.3
"2015-02-24 02:10:00",4.7,2.8,0.0,0.0,994.4
"2015-02-24 02:11:00",4.7,2.8,0.0,0.0,994.4
"2015-02-24 02:12:00",4.7,2.8,0.0,0.0,994.4
"2015-02-24 02:13:00",4.7,2.8,0.0,0.0,994.3
"2015-02-24 02:14:00",4.7,2.8,0.0,0.0,994.4
"2015-02-24 02:15:00",4.7,2.8,0.0,0.0,994.4
"2015-02-24 02:16:00",4.7,2.8,0.0,0.0,994.4
"2015-02-24 02:17:00",4.7,2.8,0.0,0.0,994.4
"2015-02-24 02:18:00",4.7,2.8,0.0,0.0,994.3
"2015-02-24 02:19:00",4.7,2.8,0.0,0.0,994.4
"2015-02-24 02:20:00",4.7,2.8,0.0,0.0,994.4
"2015-02-24 02:21:00",4.7,2.8,0.0,0.0,994.4
"2015-02-24 02:22:00",4.7,2.8,0.0,0.0,994.5
"2015-02-24 02:23:00",4.7,2.8,0.0,0.0,994.6
"2015-02-24 02:24:00",4.7,2.8,0.0,0.0,994.6
"2015-02-24 02:25:00",4.7,2.8,0.0,0.0,994.6
"2015-02-24 02:26:00",4.7,2.8,0.0,0.0,994.7
"2015-02-24 02:27:00",4.7,2.9,0.0,0.0,994.6
"2015-02-24 02:28:00",4.7,3.0,0.0,0.0,994.6
"2015-02-24 02:29:00",4.7,3.0,0.0,0.0,994.6
"2015-02-24 02:30:00",4.7,3.1,0.0,0.0,994.6
"2015-02-24 02:31:00",4.7,3.1,0.0,0.0,994.6
"2015-02-24 02:32:00",4.7,3.1,0.0,0.0,994.6
"2015-02-24 02:33:00",4.7,3.1,0.0,0.0,994.6
"2015-02-24 02:34:00",4.7,3.1,0.0,0.0,994.6
"2015-02-24 02:35:00",4.7,3.1,0.0,0.0,994.6
"2015-02-24 02:36:00",4.7,3.1,0.0,0.0,994.6
"2015-02-24 02:37:00",4.8,3.1,0.0,0.0,994.7
"2015-02-24 02:38:00",4.8,3.1,0.0,0.0,994.7
"2015-02-24 02:39:00",4.8,3.3,0.0,0.0,994.7
"2015-02-24 02:40:00",4.8,3.3,0.0,0.0,994.7
"2015-02-24 02:41:00",4.8,3.3,0.0,0.0,994.7
"2015-02-24 02:42:00",4.8,3.1,0.0,0.0,994.7
"2015-02-24 02:43:00",4.8,3.1,0.0,0.0,994.6
"2015-02-24 02:44:00",4.8,3.1,0.0,0.0,994.6
"2015-02-24 02:45:00",4.8,3.1,0.0,0.0,994.6
"2015-02-24 02:46:00",4.7,3.1,0.0,0.0,994.6
"2015-02-24 02:47:00",4.7,3.1,0.0,0.0,994.6
"2015-02-24 02:48:00",4.7,3.1,0.0,0.0,994.6
"2015-02-24 02:49:00",4.7,3.1,0.0,0.0,994.7
"2015-02-24 02:50:00",4.7,3.1,0.0,0.0,994.6
"2015-02-24 02:51:00",4.7,3.1,0.0,0.0,994.6
"2015-02-24 02:52:00",4.7,3.1,0.0,0.0,994.7
"2015-02-24 02:53:00",4.7,3.0,0.0,0.0,994.7
"2015-02-24 02:54:00",4.7,3.0,0.0,0.0,994.8
"2015-02-24 02:55:00",4.7,3.0,0.0,0.0,994.8
"2015-02-24 02:56:00",4.6,3.0,0.0,0.0,994.9
"2015-02-24 02:57:00",4.6,3.0,0.2,0.0,994.8
"2015-02-24 02:58:00",4.6,3.0,0.2,0.0,994.9
"2015-02-24 02:59:00",4.6,2.9,0.2,0.0,994.8
"2015-02-24 03:00:00",4.6,2.9,0.2,0.0,994.9
"2015-02-24 03:01:00",4.6,2.9,0.2,0.0,994.8
"2015-02-24 03:02:00",4.6,2.9,0.2,0.0,994.8
"2015-02-24 03:03:00",4.6,3.1,0.2,0.0,994.8
"2015-02-24 03:04:00",4.6,3.1,0.2,0.0,994.8
"2015-02-24 03:05:00",4.6,3.1,0.2,0.0,994.8
"2015-02-24 03:06:00",4.6,3.1,0.2,0.0,994.8
"2015-02-24 03:07:00",4.5,3.0,0.2,0.0,994.8
"2015-02-24 03:08:00",4.5,3.0,0.2,0.0,994.8
"2015-02-24 03:09:00",4.5,3.0,0.2,0.0,994.7
"2015-02-24 03:10:00",4.5,3.0,0.2,0.0,994.8
"2015-02-24 03:11:00",4.5,3.0,0.2,0.0,994.8
"2015-02-24 03:12:00",4.4,2.9,0.2,0.0,994.8
"2015-02-24 03:13:00",4.4,2.9,0.2,0.0,994.7
"2015-02-24 03:14:00",4.4,2.9,0.2,0.0,994.8
"2015-02-24 03:15:00",4.4,2.9,0.2,0.0,994.8
"2015-02-24 03:16:00",4.4,2.9,0.2,0.0,994.8
"2015-02-24 03:17:00",4.4,2.9,0.2,0.0,994.8
"2015-02-24 03:18:00",4.4,2.9,0.2,0.0,994.8
"2015-02-24 03:19:00",4.3,2.8,0.2,0.0,994.8
"2015-02-24 03:20:00",4.3,2.8,0.2,0.0,994.8
"2015-02-24 03:21:00",4.3,2.8,0.2,0.0,994.8
"2015-02-24 03:22:00",4.3,2.8,0.2,0.0,994.8
"2015-02-24 03:23:00",4.3,2.9,0.2,0.0,994.9
"2015-02-24 03:24:00",4.3,2.9,0.2,0.0,994.9
"2015-02-24 03:25:00",4.3,2.9,0.2,0.0,994.9
"2015-02-24 03:26:00",4.3,2.9,0.2,0.0,994.9
"2015-02-24 03:27:00",4.3,2.9,0.2,0.0,994.9
"2015-02-24 03:28:00",4.2,2.9,0.2,0.0,994.9
"2015-02-24 03:29:00",4.2,2.9,0.2,0.0,994.9
"2015-02-24 03:30:00",4.2,2.9,0.2,0.0,994.9
"2015-02-24 03:31:00",4.2,2.9,0.2,0.0,994.8
"2015-02-24 03:32:00",4.2,2.8,0.2,0.0,994.9
"2015-02-24 03:33:00",4.2,2.8,0.2,0.0,994.9
"2015-02-24 03:34:00",4.2,2.8,0.2,0.0,994.9
"2015-02-24 03:35:00",4.2,2.8,0.2,0.0,994.9
"2015-02-24 03:36:00",4.2,2.8,0.2,0.0,994.9
"2015-02-24 03:37:00",4.2,2.8,0.2,0.0,994.9
"2015-02-24 03:38:00",4.2,2.8,0.2,0.0,994.9
"2015-02-24 03:39:00",4.2,2.8,0.2,0.0,994.9
"2015-02-24 03:40:00",4.2,3.0,0.2,0.0,994.9
"2015-02-24 03:41:00",4.2,3.0,0.2,0.0,994.9
"2015-02-24 03:42:00",4.2,3.0,0.2,0.0,995.0
"2015-02-24 03:43:00",4.2,3.0,0.2,0.0,994.9
"2015-02-24 03:44:00",4.2,3.0,0.2,0.0,994.9
"2015-02-24 03:45:00",4.2,3.0,0.2,0.0,994.9
"2015-02-24 03:46:00",4.2,3.0,0.2,0.0,995.0
"2015-02-24 03:47:00",4.2,3.0,0.2,0.0,995.0
"2015-02-24 03:48:00",4.2,3.0,0.2,0.0,995.2
"2015-02-24 03:49:00",4.2,3.0,0.2,0.0,995.3
"2015-02-24 03:50:00",4.2,3.0,0.2,0.0,995.3
"2015-02-24 03:51:00",4.2,3.0,0.4,0.0,995.4
"2015-02-24 03:52:00",4.2,3.0,0.4,0.0,995.5
"2015-02-24 03:53:00",4.2,3.0,0.6,0.0,995.6
"2015-02-24 03:54:00",4.2,3.0,0.6,0.0,995.7
"2015-02-24 03:55:00",4.2,3.0,0.8,0.0,995.8
"2015-02-24 03:56:00",4.2,3.0,0.8,0.0,995.8
"2015-02-24 03:57:00",4.2,3.2,1.0,0.0,996.0
"2015-02-24 03:58:00",4.2,3.2,1.0,0.0,996.1
"2015-02-24 03:59:00",4.2,3.2,1.0,0.0,996.1
"2015-02-24 04:00:00",4.2,3.2,1.0,0.0,996.2
"2015-02-24 04:01:00",4.2,3.2,1.2,0.0,996.2
"2015-02-24 04:02:00",4.2,3.2,1.2,0.0,996.2
"2015-02-24 04:03:00",4.2,3.2,1.2,0.0,996.2
"2015-02-24 04:04:00",4.2,3.2,1.2,0.0,996.2
"2015-02-24 04:05:00",4.2,3.2,1.2,0.0,996.2
"2015-02-24 04:06:00",4.2,3.2,1.2,0.0,996.1
"2015-02-24 04:07:00",4.2,3.2,1.2,0.0,996.1
"2015-02-24 04:08:00",4.2,3.2,1.2,0.0,996.1
"2015-02-24 04:09:00",4.2,3.1,1.2,0.0,996.1
"2015-02-24 04:10:00",4.2,3.1,1.2,0.0,996.1
"2015-02-24 04:11:00",4.2,3.1,1.2,0.0,996.1
"2015-02-24 04:12:00",4.2,3.1,1.2,0.0,996.1
"2015-02-24 04:13:00",4.2,3.1,1.2,0.0,996.1
"2015-02-24 04:14:00",4.2,3.1,1.2,0.0,996.2
"2015-02-24 04:15:00",4.1,3.1,1.2,0.0,996.2
"2015-02-24 04:16:00",4.1,3.1,1.2,0.0,996.2
"2015-02-24 04:17:00",4.1,3.1,1.2,0.0,996.2
"2015-02-24 04:18:00",4.1,3.1,1.2,0.0,996.2
"2015-02-24 04:19:00",4.1,3.0,1.2,0.0,996.3
"2015-02-24 04:20:00",4.1,3.0,1.2,0.0,996.3
"2015-02-24 04:21:00",4.1,3.0,1.2,0.0,996.3
"2015-02-24 04:22:00",4.1,3.0,1.2,0.0,996.3
"2015-02-24 04:23:00",4.1,3.0,1.2,0.0,996.3
"2015-02-24 04:24:00",4.0,3.0,1.2,0.0,996.3
"2015-02-24 04:25:00",4.0,3.0,1.2,0.0,996.3
"2015-02-24 04:26:00",4.0,3.0,1.2,0.0,996.3
"2015-02-24 04:27:00",3.9,2.9,1.2,0.0,996.3
"2015-02-24 04:28:00",3.9,2.9,1.2,0.0,996.4
"2015-02-24 04:29:00",3.9,2.9,1.2,0.0,996.4
"2015-02-24 04:30:00",3.9,2.9,1.2,0.0,996.4
"2015-02-24 04:31:00",3.9,2.9,1.2,0.0,996.4
"2015-02-24 04:32:00",3.9,2.8,1.2,0.0,996.4
"2015-02-24 04:33:00",3.8,2.8,1.2,0.0,996.4
"2015-02-24 04:34:00",3.8,2.8,1.2,0.0,996.4
"2015-02-24 04:35:00",3.8,2.8,1.2,0.0,996.4
"2015-02-24 04:36:00",3.8,2.7,1.2,0.0,996.5
"2015-02-24 04:37:00",3.8,2.7,1.2,0.0,996.4
"2015-02-24 04:38:00",3.7,2.7,1.2,0.0,996.5
"2015-02-24 04:39:00",3.7,2.7,1.2,0.0,996.5
"2015-02-24 04:40:00",3.7,2.7,1.2,0.0,996.6
"2015-02-24 04:41:00",3.7,2.6,1.2,0.0,996.6
"2015-02-24 04:42:00",3.6,2.6,1.2,0.0,996.6
"2015-02-24 04:43:00",3.6,2.6,1.2,0.0,996.7
"2015-02-24 04:44:00",3.6,2.5,1.2,0.0,996.7
"2015-02-24 04:45:00",3.6,2.5,1.2,0.0,996.7
"2015-02-24 04:46:00",3.5,2.5,1.2,0.0,996.7
"2015-02-24 04:47:00",3.5,2.5,1.2,0.0,996.8
"2015-02-24 04:48:00",3.5,2.4,1.2,0.0,996.8
"2015-02-24 04:49:00",3.4,2.4,1.2,0.0,996.8
"2015-02-24 04:50:00",3.4,2.4,1.2,0.0,996.8
"2015-02-24 04:51:00",3.4,2.4,1.2,0.0,996.8
"2015-02-24 04:52:00",3.4,2.4,1.2,0.0,996.8
"2015-02-24 04:53:00",3.4,2.3,1.2,0.0,996.9
"2015-02-24 04:54:00",3.3,2.3,1.2,0.0,996.9
"2015-02-24 04:55:00",3.3,2.3,1.2,0.0,996.9
"2015-02-24 04:56:00",3.3,2.3,1.2,0.0,996.9
"2015-02-24 04:57:00",3.3,2.3,1.2,0.0,996.9
"2015-02-24 04:58:00",3.3,2.3,1.2,0.0,996.9
"2015-02-24 04:59:00",3.3,2.2,1.2,0.0,996.9
"2015-02-24 05:00:00",3.2,2.2,1.2,0.0,996.9
"2015-02-24 05:01:00",3.2,2.2,1.2,0.0,996.9
"2015-02-24 05:02:00",3.2,2.2,1.2,0.0,996.8
"2015-02-24 05:03:00",3.2,2.1,1.2,0.0,996.8
"2015-02-24 05:04:00",3.2,2.1,1.2,0.0,996.8
"2015-02-24 05:05:00",3.2,2.1,1.2,0.0,996.9
"2015-02-24 05:06:00",3.2,2.1,1.2,0.0,996.9
"2015-02-24 05:07:00",3.1,2.1,1.2,0.0,997.0
"2015-02-24 05:08:00",3.1,2.2,1.2,0.0,997.0
"2015-02-24 05:09:00",3.1,2.2,1.2,0.0,997.1
"2015-02-24 05:10:00",3.1,2.2,1.2,0.0,997.1
"2015-02-24 05:11:00",3.1,2.2,1.2,0.0,997.2
"2015-02-24 05:12:00",3.1,2.2,1.2,0.0,997.2
"2015-02-24 05:13:00",3.1,2.2,1.2,0.0,997.2
"2015-02-24 05:14:00",3.1,2.2,1.2,0.0,997.2
"2015-02-24 05:15:00",3.1,2.2,1.2,0.0,997.2
"2015-02-24 05:16:00",3.1,2.2,1.2,0.0,997.3
"2015-02-24 05:17:00",3.0,2.2,1.2,0.0,997.3
"2015-02-24 05:18:00",3.0,2.2,1.2,0.0,997.3
"2015-02-24 05:19:00",3.0,2.1,1.2,0.0,997.3
"2015-02-24 05:20:00",3.0,2.1,1.2,0.0,997.2
"2015-02-24 05:21:00",3.0,2.1,1.2,0.0,997.2
"2015-02-24 05:22:00",3.0,2.1,1.2,0.0,997.2
"2015-02-24 05:23:00",3.0,2.1,1.2,0.0,997.2
"2015-02-24 05:24:00",3.0,2.1,1.2,0.0,997.2
"2015-02-24 05:25:00",3.0,2.1,1.2,0.0,997.2
"2015-02-24 05:26:00",3.0,2.1,1.2,0.0,997.3
"2015-02-24 05:27:00",3.0,2.1,1.2,0.0,997.3
"2015-02-24 05:28:00",3.0,2.2,1.2,0.0,997.3
"2015-02-24 05:29:00",3.0,2.2,1.2,0.0,997.3
"2015-02-24 05:30:00",2.9,2.2,1.2,0.0,997.4
"2015-02-24 05:31:00",2.9,2.2,1.2,0.0,997.3
"2015-02-24 05:32:00",2.9,2.2,1.2,0.0,997.4
"2015-02-24 05:33:00",2.9,2.2,1.2,0.0,997.4
"2015-02-24 05:34:00",2.9,2.2,1.2,0.0,997.3
"2015-02-24 05:35:00",2.9,2.2,1.2,0.0,997.5
"2015-02-24 05:36:00",2.9,2.2,1.2,0.0,997.5
"2015-02-24 05:37:00",2.9,2.2,1.2,0.0,997.5
"2015-02-24 05:38:00",2.9,2.2,1.2,0.0,997.5
"2015-02-24 05:39:00",2.9,2.2,1.2,0.0,997.5
"2015-02-24 05:40:00",2.9,2.2,1.2,0.0,997.4
"2015-02-24 05:41:00",2.9,2.2,1.2,0.0,997.5
"2015-02-24 05:42:00",2.9,2.2,1.2,0.0,997.5
"2015-02-24 05:43:00",2.9,2.2,1.2,0.0,997.5
"2015-02-24 05:44:00",2.9,2.2,1.2,0.0,997.6
"2015-02-24 05:45:00",2.9,2.2,1.2,0.0,997.6
"2015-02-24 05:46:00",2.9,2.2,1.2,0.0,997.6
"2015-02-24 05:47:00",2.9,2.2,1.2,0.0,997.7
"2015-02-24 05:48:00",2.9,2.2,1.2,0.0,997.6
"2015-02-24 05:49:00",2.9,2.1,1.2,0.0,997.7
"2015-02-24 05:50:00",2.8,2.1,1.2,0.0,997.7
"2015-02-24 05:51:00",2.8,2.1,1.2,0.0,997.8
"2015-02-24 05:52:00",2.8,2.1,1.2,0.0,997.8
"2015-02-24 05:53:00",2.8,2.1,1.2,0.0,997.9
"2015-02-24 05:54:00",2.8,2.1,1.2,0.0,997.9
"2015-02-24 05:55:00",2.8,2.1,1.2,0.0,998.0
"2015-02-24 05:56:00",2.8,2.1,1.2,0.0,998.0
"2015-02-24 05:57:00",2.8,2.1,1.2,0.0,998.1
"2015-02-24 05:58:00",2.8,2.1,1.2,0.0,998.1
"2015-02-24 05:59:00",2.8,2.1,1.2,0.0,998.1
"2015-02-24 06:00:00",2.8,2.1,1.2,0.0,998.2
"2015-02-24 06:01:00",2.8,2.1,1.2,0.0,998.2
"2015-02-24 06:02:00",2.8,2.1,1.2,0.0,998.2
"2015-02-24 06:03:00",2.8,2.1,1.2,0.0,998.2
"2015-02-24 06:04:00",2.8,2.1,1.2,0.0,998.3
"2015-02-24 06:05:00",2.8,2.1,1.2,0.0,998.4
"2015-02-24 06:06:00",2.8,2.1,1.2,0.0,998.4
"2015-02-24 06:07:00",2.8,2.1,1.2,0.0,998.4
"2015-02-24 06:08:00",2.8,2.1,1.2,0.0,998.4
"2015-02-24 06:09:00",2.8,2.1,1.2,0.0,998.4
"2015-02-24 06:10:00",2.8,2.1,1.2,0.0,998.5
"2015-02-24 06:11:00",2.8,2.1,1.2,0.0,998.4
"2015-02-24 06:12:00",2.8,2.0,1.2,0.0,998.5
"2015-02-24 06:13:00",2.7,2.0,1.2,0.0,998.6
"2015-02-24 06:14:00",2.7,2.0,1.2,0.0,998.6
"2015-02-24 06:15:00",2.7,2.0,1.2,0.0,998.6
"2015-02-24 06:16:00",2.7,2.0,1.2,0.0,998.6
"2015-02-24 06:17:00",2.7,2.0,1.2,0.0,998.6
"2015-02-24 06:18:00",2.7,2.0,1.2,0.0,998.7
"2015-02-24 06:19:00",2.7,2.0,1.2,0.0,998.7
"2015-02-24 06:20:00",2.7,1.9,1.2,0.0,998.7
"2015-02-24 06:21:00",2.7,1.9,1.2,0.0,998.8
"2015-02-24 06:22:00",2.7,1.9,1.2,0.0,998.9
"2015-02-24 06:23:00",2.7,1.9,1.2,0.0,999.0
"2015-02-24 06:24:00",2.7,1.9,1.2,0.0,999.0
"2015-02-24 06:25:00",2.6,1.9,1.2,0.0,999.0
"2015-02-24 06:26:00",2.7,2.1,1.2,0.0,999.1
"2015-02-24 06:27:00",2.6,2.1,1.2,0.0,999.1
"2015-02-24 06:28:00",2.6,2.1,1.2,0.0,999.2
"2015-02-24 06:29:00",2.6,2.0,1.2,0.0,999.2
"2015-02-24 06:30:00",2.6,2.0,1.2,0.0,999.2
"2015-02-24 06:31:00",2.6,2.0,1.2,0.0,999.2
"2015-02-24 06:32:00",2.6,2.0,1.2,0.0,999.2
"2015-02-24 06:33:00",2.6,2.0,1.2,0.0,999.3
"2015-02-24 06:34:00",2.6,2.0,1.2,0.0,999.2
"2015-02-24 06:35:00",2.6,2.0,1.2,0.0,999.3
"2015-02-24 06:36:00",2.6,2.0,1.2,0.0,999.3
"2015-02-24 06:37:00",2.6,2.0,1.2,0.0,999.3
"2015-02-24 06:38:00",2.6,2.0,1.2,0.0,999.3
"2015-02-24 06:39:00",2.6,2.0,1.2,0.0,999.3
"2015-02-24 06:40:00",2.6,2.0,1.2,0.0,999.3
"2015-02-24 06:41:00",2.5,2.0,1.2,0.0,999.3
"2015-02-24 06:42:00",2.5,1.9,1.2,0.0,999.3
"2015-02-24 06:43:00",2.5,1.9,1.2,0.0,999.3
"2015-02-24 06:44:00",2.5,1.9,1.2,0.0,999.3
"2015-02-24 06:45:00",2.5,1.9,1.2,0.0,999.3
"2015-02-24 06:46:00",2.4,1.9,1.2,0.0,999.3
"2015-02-24 06:47:00",2.4,1.7,1.2,0.0,999.4
"2015-02-24 06:48:00",2.4,1.7,1.2,0.0,999.4
"2015-02-24 06:49:00",2.4,1.7,1.2,0.0,999.4
"2015-02-24 06:50:00",2.4,1.7,1.2,0.0,999.4
"2015-02-24 06:51:00",2.4,1.7,1.2,0.0,999.5
"2015-02-24 06:52:00",2.4,1.7,1.2,0.0,999.5
"2015-02-24 06:53:00",2.4,1.7,1.2,0.0,999.6
"2015-02-24 06:54:00",2.3,1.8,1.2,0.0,999.6
"2015-02-24 06:55:00",2.3,1.8,1.2,0.0,999.6
"2015-02-24 06:56:00",2.3,1.8,1.2,0.0,999.6
"2015-02-24 06:57:00",2.3,1.8,1.2,0.0,999.7
"2015-02-24 06:58:00",2.3,1.8,1.2,0.0,999.7
"2015-02-24 06:59:00",2.3,1.8,1.2,0.0,999.8
"2015-02-24 07:00:00",2.3,1.7,1.2,0.0,999.8
"2015-02-24 07:01:00",2.3,1.7,1.2,0.0,999.7
"2015-02-24 07:02:00",2.3,1.7,1.2,0.0,999.8
"2015-02-24 07:03:00",2.3,1.7,1.2,0.0,999.9
"2015-02-24 07:04:00",2.3,1.7,1.2,0.0,999.9
"2015-02-24 07:05:00",2.3,1.7,1.2,0.0,999.9
"2015-02-24 07:06:00",2.3,1.7,1.2,0.0,1000.0
"2015-02-24 07:07:00",2.3,1.7,1.2,0.0,1000.0
"2015-02-24 07:08:00",2.3,1.7,1.2,0.0,1000.0
"2015-02-24 07:09:00",2.3,1.7,1.2,0.0,1000.1
"2015-02-24 07:10:00",2.3,1.7,1.2,0.0,1000.1
"2015-02-24 07:11:00",2.3,1.7,1.2,0.0,1000.2
"2015-02-24 07:12:00",2.3,1.7,1.2,0.0,1000.2
"2015-02-24 07:13:00",2.3,1.7,1.2,0.0,1000.2
"2015-02-24 07:14:00",2.3,1.7,1.2,0.0,1000.3
"2015-02-24 07:15:00",2.3,1.7,1.2,0.0,1000.3
"2015-02-24 07:16:00",2.3,1.7,1.2,0.0,1000.4
"2015-02-24 07:17:00",2.3,1.7,1.2,0.0,1000.4
"2015-02-24 07:18:00",2.3,1.7,1.2,0.0,1000.4
"2015-02-24 07:19:00",2.2,1.7,1.2,0.0,1000.5
"2015-02-24 07:20:00",2.3,1.7,1.2,0.0,1000.5
"2015-02-24 07:21:00",2.2,1.7,1.2,0.0,1000.5
"2015-02-24 07:22:00",2.2,1.7,1.2,0.0,1000.6
"2015-02-24 07:23:00",2.3,1.7,1.2,0.0,1000.6
"2015-02-24 07:24:00",2.3,1.7,1.2,0.0,1000.6
"2015-02-24 07:25:00",2.3,1.7,1.2,0.0,1000.6
"2015-02-24 07:26:00",2.3,1.7,1.2,0.0,1000.7
"2015-02-24 07:27:00",2.3,1.7,1.2,0.0,1000.7
"2015-02-24 07:28:00",2.3,1.7,1.2,0.0,1000.7
"2015-02-24 07:29:00",2.3,1.7,1.2,0.0,1000.7
"2015-02-24 07:30:00",2.3,1.7,1.2,0.0,1000.8
"2015-02-24 07:31:00",2.3,1.7,1.2,0.0,1000.8
"2015-02-24 07:32:00",2.3,1.7,1.2,0.0,1000.9
"2015-02-24 07:33:00",2.3,1.7,1.2,0.0,1000.9
"2015-02-24 07:34:00",2.3,1.7,1.2,0.0,1001.0
"2015-02-24 07:35:00",2.3,1.7,1.2,0.0,1000.9
"2015-02-24 07:36:00",2.3,1.7,1.2,0.0,1000.9
"2015-02-24 07:37:00",2.3,1.7,1.2,0.0,1000.9
"2015-02-24 07:38:00",2.3,1.7,1.2,0.0,1001.0
"2015-02-24 07:39:00",2.3,1.7,1.2,0.0,1001.0
"2015-02-24 07:40:00",2.3,1.8,1.2,0.0,1001.0
"2015-02-24 07:41:00",2.3,1.8,1.2,0.0,1001.1
"2015-02-24 07:42:00",2.3,1.8,1.2,0.0,1001.1
"2015-02-24 07:43:00",2.3,1.8,1.2,0.0,1001.1
"2015-02-24 07:44:00",2.3,1.8,1.2,0.0,1001.2
"2015-02-24 07:45:00",2.4,1.8,1.2,0.0,1001.2
"2015-02-24 07:46:00",2.4,2.0,1.2,0.0,1001.2
"2015-02-24 07:47:00",2.4,2.0,1.2,0.0,1001.2
"2015-02-24 07:48:00",2.4,2.0,1.2,0.0,1001.2
"2015-02-24 07:49:00",2.4,2.0,1.2,0.0,1001.2
"2015-02-24 07:50:00",2.4,2.0,1.2,0.0,1001.3
"2015-02-24 07:51:00",2.4,2.0,1.2,0.0,1001.3
"2015-02-24 07:52:00",2.5,2.1,1.2,0.0,1001.3
"2015-02-24 07:53:00",2.5,2.1,1.2,0.0,1001.3
"2015-02-24 07:54:00",2.5,2.1,1.2,0.0,1001.4
"2015-02-24 07:55:00",2.5,2.1,1.2,0.0,1001.4
"2015-02-24 07:56:00",2.6,2.1,1.2,0.0,1001.4
"2015-02-24 07:57:00",2.6,2.1,1.2,0.0,1001.4
"2015-02-24 07:58:00",2.6,2.1,1.2,0.0,1001.4
"2015-02-24 07:59:00",2.6,2.2,1.2,0.0,1001.4
"2015-02-24 08:00:00",2.6,2.2,1.2,0.0,1001.5
"2015-02-24 08:01:00",2.6,2.2,1.2,0.0,1001.5
"2015-02-24 08:02:00",2.7,2.2,1.2,0.0,1001.6
"2015-02-24 08:03:00",2.7,2.2,1.2,0.0,1001.5
"2015-02-24 08:04:00",2.7,2.2,1.2,0.0,1001.6
"2015-02-24 08:05:00",2.7,2.3,1.2,0.0,1001.6
"2015-02-24 08:06:00",2.9,2.4,1.2,0.0,1001.6
"2015-02-24 08:07:00",3.0,2.7,1.2,0.0,1001.6
"2015-02-24 08:08:00",3.2,2.9,1.2,0.0,1001.6
"2015-02-24 08:09:00",3.4,3.1,1.2,0.0,1001.7
"2015-02-24 08:10:00",3.6,3.3,1.2,0.0,1001.7
"2015-02-24 08:11:00",3.8,3.4,1.2,0.0,1001.8
"2015-02-24 08:12:00",3.9,3.5,1.2,0.0,1001.8
"2015-02-24 08:13:00",4.0,3.4,1.2,0.0,1001.8
"2015-02-24 08:14:00",4.0,3.4,1.2,0.0,1001.8
"2015-02-24 08:15:00",4.0,3.5,1.2,0.0,1001.9
"2015-02-24 08:16:00",4.1,3.4,1.2,0.0,1001.9
"2015-02-24 08:17:00",4.1,3.4,1.2,0.0,1001.9
"2015-02-24 08:18:00",4.2,3.4,1.2,0.0,1001.9
"2015-02-24 08:19:00",4.2,3.5,1.2,0.0,1001.9
"2015-02-24 08:20:00",4.3,3.6,1.2,0.0,1002.0
"2015-02-24 08:21:00",4.4,3.5,1.2,0.0,1002.1
"2015-02-24 08:22:00",4.4,3.6,1.2,0.0,1002.0
"2015-02-24 08:23:00",4.4,3.6,1.2,0.0,1002.1
"2015-02-24 08:24:00",4.4,3.6,1.2,0.0,1002.2
"2015-02-24 08:25:00",4.4,3.6,1.2,0.0,1002.1
"2015-02-24 08:26:00",4.4,3.6,1.2,0.0,1002.1
"2015-02-24 08:27:00",4.5,3.6,1.2,0.0,1002.2
"2015-02-24 08:28:00",4.5,3.6,1.2,0.0,1002.2
"2015-02-24 08:29:00",4.6,3.7,1.2,0.0,1002.3
"2015-02-24 08:30:00",4.7,3.8,1.2,0.0,1002.3
"2015-02-24 08:31:00",4.7,3.7,1.2,0.0,1002.3
"2015-02-24 08:32:00",4.7,3.9,1.2,0.0,1002.3
"2015-02-24 08:33:00",4.8,3.7,1.2,0.0,1002.4
"2015-02-24 08:34:00",4.8,3.7,1.2,0.0,1002.5
"2015-02-24 08:35:00",4.8,3.8,1.2,0.0,1002.5
"2015-02-24 08:36:00",4.8,3.8,1.2,0.0,1002.5
"2015-02-24 08:37:00",4.9,3.8,1.2,0.0,1002.6
"2015-02-24 08:38:00",5.0,3.8,1.2,0.0,1002.6
"2015-02-24 08:39:00",5.0,3.8,1.2,0.0,1002.6
"2015-02-24 08:40:00",5.0,3.9,1.2,0.0,1002.7
"2015-02-24 08:41:00",5.1,3.9,1.2,0.0,1002.7
"2015-02-24 08:42:00",5.1,3.9,1.2,0.0,1002.7
"2015-02-24 08:43:00",5.2,4.0,1.2,0.0,1002.7
"2015-02-24 08:44:00",5.2,3.8,1.2,0.0,1002.7
"2015-02-24 08:45:00",5.3,4.1,1.2,0.0,1002.8
"2015-02-24 08:46:00",5.3,4.0,1.2,0.0,1002.8
"2015-02-24 08:47:00",5.3,4.0,1.2,0.0,1002.8
"2015-02-24 08:48:00",5.3,4.0,1.2,0.0,1002.8
"2015-02-24 08:49:00",5.4,4.0,1.2,0.0,1002.9
"2015-02-24 08:50:00",5.4,4.2,1.2,0.0,1002.9
"2015-02-24 08:51:00",5.4,4.2,1.2,0.0,1002.9
"2015-02-24 08:52:00",5.5,4.1,1.2,0.0,1002.9
"2015-02-24 08:53:00",5.6,4.2,1.2,0.0,1002.9
"2015-02-24 08:54:00",5.7,4.5,1.2,0.5,1002.9
"2015-02-24 08:55:00",5.7,4.3,1.2,0.5,1002.9
"2015-02-24 08:56:00",5.7,4.3,1.2,0.5,1002.9
"2015-02-24 08:57:00",5.7,4.3,1.2,0.5,1003.0
"2015-02-24 08:58:00",5.7,4.2,1.2,0.5,1003.0
"2015-02-24 08:59:00",5.6,4.1,1.2,0.5,1003.0
"2015-02-24 09:00:00",5.6,4.1,1.2,0.5,1003.0